GW7861 Weather Reports


time (UTC)temp
C
wind
direction
speed
KPH
gust
KPH
rain 1hr
cm
rain 24hr
cm
rain mn
cm
humidity
%
barometer
mb
20260906140926 29 30 3.2 4.8 0.00 0.00 0.00 71 1013.5
20260906140420 28 14 1.6 1.6 0.00 0.00 0.00 71 1013.3
20260906135919 28 21 1.6 1.6 0.00 0.00 0.00 71 1013.4
20260906135418 29 5 1.6 1.6 0.00 0.00 0.00 71 1013.5
20260906134914 28 45 1.6 3.2 0.00 0.00 0.00 72 1013.8
20260906134409 28 32 1.6 1.6 0.00 0.00 0.00 74 1013.3
20260906133904 28 21 3.2 3.2 0.00 0.00 0.00 73 1013.6
20260906133400 28 18 0.0 1.6 0.00 0.00 0.00 74 1013.6
20260906132855 28 90 3.2 4.8 0.00 0.00 0.00 74 1013.6
20260906132350 27 70 1.6 4.8 0.00 0.00 0.00 74 1013.4
20260906131846 27 31 1.6 1.6 0.00 0.00 0.00 74 1013.4
20260906131341 27 27 0.0 0.0 0.00 0.00 0.00 74 1013.3
20260906130837 27 53 3.2 3.2 0.00 0.00 0.00 74 1013.3
20260906130336 27 43 1.6 1.6 0.00 0.00 0.00 75 1013.4
20260906125835 26 43 0.0 0.0 0.00 0.00 0.00 78 1013.4
20260906125332 26 335 0.0 0.0 0.00 0.00 0.00 79 1013.2
20260906124827 25 335 0.0 0.0 0.00 0.00 0.00 81 1013.2
20260906124324 24 335 0.0 0.0 0.00 0.00 0.00 85 1013.2
20260906123822 23 335 0.0 0.0 0.00 0.00 0.00 88 1013.1
20260906123318 23 335 0.0 0.0 0.00 0.00 0.00 89 1013.0
20260906122817 23 335 0.0 0.0 0.00 0.00 0.00 90 1012.9
20260906122312 23 335 0.0 0.0 0.00 0.00 0.00 90 1012.8
20260906121809 23 335 0.0 0.0 0.00 0.00 0.00 90 1012.6
20260906121305 23 335 0.0 0.0 0.00 0.00 0.00 89 1012.7
20260906120801 23 335 0.0 0.0 0.00 0.00 0.00 90 1012.5
20260906120257 23 335 0.0 0.0 0.00 0.00 0.00 90 1012.5
20260906115753 22 335 0.0 0.0 0.00 0.00 0.00 91 1012.4
20260906115247 22 335 0.0 0.0 0.00 0.00 0.00 92 1012.2
20260906114747 22 335 0.0 0.0 0.00 0.00 0.00 93 1012.4
20260906114242 22 335 0.0 0.0 0.00 0.00 0.00 93 1012.4
20260906113738 22 335 0.0 0.0 0.00 0.00 0.00 92 1012.2
20260906113237 22 335 0.0 0.0 0.00 0.00 0.00 92 1012.2
20260906112736 22 335 0.0 0.0 0.00 0.00 0.00 93 1012.0
20260906112233 22 335 0.0 0.0 0.00 0.00 0.00 93 1012.1
20260906111733 22 335 0.0 0.0 0.00 0.00 0.00 93 1012.0
20260906111227 22 335 0.0 0.0 0.00 0.00 0.00 93 1012.2
20260906110722 22 335 0.0 0.0 0.00 0.00 0.00 94 1012.1
20260906110218 22 335 0.0 0.0 0.00 0.00 0.00 94 1012.2
20260906105717 22 335 0.0 0.0 0.00 0.00 0.00 93 1012.1
20260906105213 22 335 0.0 0.0 0.00 0.00 0.00 93 1012.1
20260906104713 22 335 0.0 0.0 0.00 0.00 0.00 92 1011.9
20260906104212 22 335 0.0 0.0 0.00 0.00 0.00 92 1011.9
20260906103709 22 335 0.0 0.0 0.00 0.00 0.00 93 1011.9
20260906103205 22 335 0.0 0.0 0.00 0.00 0.00 92 1011.8
20260906102700 22 335 0.0 0.0 0.00 0.00 0.00 92 1011.8
20260906102200 22 335 0.0 0.0 0.00 0.00 0.00 92 1011.8
20260906101700 22 335 0.0 0.0 0.00 0.00 0.00 92 1011.7
20260906101155 22 335 0.0 0.0 0.00 0.00 0.00 92 1011.7
20260906100651 23 335 0.0 0.0 0.00 0.00 0.00 91 1011.5
20260906100150 23 335 0.0 0.0 0.00 0.00 0.00 91 1011.7
20260906095645 23 335 0.0 0.0 0.00 0.00 0.00 90 1011.8
20260906095141 23 335 0.0 0.0 0.00 0.00 0.00 90 1011.4
20260906094639 23 335 0.0 0.0 0.00 0.00 0.00 90 1011.7
20260906094136 23 335 0.0 0.0 0.00 0.00 0.00 90 1011.5
20260906093632 23 335 0.0 0.0 0.00 0.00 0.00 89 1011.7
20260906093131 23 335 0.0 0.0 0.00 0.00 0.00 89 1011.4
20260906092627 23 335 0.0 0.0 0.00 0.00 0.00 89 1011.5
20260906092121 23 335 0.0 0.0 0.00 0.00 0.00 88 1011.5
20260906091618 23 335 0.0 0.0 0.00 0.00 0.00 88 1011.4
20260906091114 23 335 0.0 0.0 0.00 0.00 0.00 87 1011.5
20260906090615 23 335 0.0 0.0 0.00 0.00 0.00 86 1011.3
20260906090114 23 335 0.0 0.0 0.00 0.00 0.00 86 1011.3
20260906085614 23 335 0.0 0.0 0.00 0.00 0.00 86 1011.3
20260906085108 24 335 0.0 0.0 0.00 0.00 0.00 86 1011.5
20260906084603 24 335 0.0 0.0 0.00 0.00 0.00 85 1011.4
20260906084101 24 335 0.0 0.0 0.00 0.00 0.00 84 1011.3
20260906083557 25 335 0.0 0.0 0.00 0.00 0.00 84 1011.4
20260906083057 25 335 0.0 0.0 0.00 0.00 0.00 84 1011.4
20260906082552 25 335 1.6 1.6 0.00 0.00 0.00 82 1011.4
20260906082048 25 334 1.6 1.6 0.00 0.00 0.00 82 1011.3
20260906081544 25 335 0.0 0.0 0.00 0.00 0.00 80 1011.3
20260906081039 25 335 0.0 0.0 0.00 0.00 0.00 81 1011.4
20260906080536 25 335 1.6 1.6 0.00 0.00 0.00 80 1011.3
20260906080032 25 335 1.6 1.6 0.00 0.00 0.00 81 1011.4
20260906075531 25 335 3.2 3.2 0.00 0.00 0.00 83 1011.4
20260906075026 24 334 1.6 1.6 0.00 0.00 0.00 84 1011.4
20260906074521 25 335 1.6 1.6 0.00 0.00 0.00 83 1011.3
20260906074019 25 335 1.6 1.6 0.00 0.00 0.00 83 1011.4
20260906073514 25 335 1.6 1.6 0.00 0.00 0.00 83 1011.3
20260906073011 25 335 0.0 0.0 0.00 0.00 0.00 83 1011.4
20260906072505 25 335 0.0 0.0 0.00 0.00 0.00 83 1011.3
20260906072001 25 335 1.6 1.6 0.00 0.00 0.00 83 1011.4
20260906071457 25 335 0.0 0.0 0.00 0.00 0.00 84 1011.2
20260906070952 23 334 3.2 3.2 0.00 0.00 0.00 86 1011.2
20260906070448 24 335 0.0 0.0 0.00 0.00 0.00 85 1011.3
20260906065944 24 335 1.6 0.0 0.00 0.00 0.00 84 1011.2
20260906065443 24 336 0.0 0.0 0.00 0.00 0.00 85 1011.5
20260906064939 24 335 0.0 0.0 0.00 0.00 0.00 84 1011.5
20260906064435 24 335 0.0 0.0 0.00 0.00 0.00 84 1011.7
20260906063930 24 335 0.0 0.0 0.00 0.00 0.00 84 1011.9
20260906063425 25 335 0.0 0.0 0.00 0.00 0.00 83 1011.7
20260906062920 25 335 0.0 0.0 0.00 0.00 0.00 83 1011.7
20260906062421 25 335 0.0 0.0 0.00 0.00 0.00 83 1011.5
20260906061916 25 335 0.0 0.0 0.00 0.00 0.00 83 1011.5
20260906061412 25 335 0.0 0.0 0.00 0.00 0.00 82 1011.7
20260906060906 25 335 0.0 0.0 0.00 0.00 0.00 82 1011.5
20260906060403 25 335 0.0 0.0 0.00 0.00 0.00 82 1011.8
20260906055859 25 335 0.0 0.0 0.00 0.00 0.00 82 1011.8
20260906055355 25 335 0.0 0.0 0.00 0.00 0.00 82 1011.5
20260906054850 25 335 0.0 0.0 0.00 0.00 0.00 82 1011.9
20260906054345 25 335 1.6 1.6 0.00 0.00 0.00 82 1011.9
20260906053841 25 335 0.0 0.0 0.00 0.00 0.00 82 1011.8
20260906053337 25 335 0.0 0.0 0.00 0.00 0.00 81 1011.7
20260906052832 25 335 1.6 1.6 0.00 0.00 0.00 82 1012.0
20260906052328 24 18 0.0 0.0 0.00 0.00 0.00 83 1011.5
20260906051825 24 18 0.0 0.0 0.00 0.00 0.00 83 1011.7
20260906051324 24 18 0.0 0.0 0.00 0.00 0.00 83 1011.5
20260906050820 24 18 0.0 0.0 0.00 0.00 0.00 84 1011.5
20260906050315 24 18 0.0 0.0 0.00 0.00 0.00 83 1011.4
20260906045814 24 18 0.0 0.0 0.00 0.00 0.00 83 1011.7
20260906045308 24 18 0.0 0.0 0.00 0.00 0.00 82 1011.4
20260906044805 25 18 0.0 0.0 0.00 0.00 0.00 82 1011.5
20260906044259 25 18 0.0 0.0 0.00 0.00 0.00 81 1011.4
20260906043755 25 18 0.0 0.0 0.00 0.00 0.00 80 1011.2
20260906043251 25 18 0.0 0.0 0.00 0.00 0.00 80 1011.1
20260906042751 25 18 0.0 0.0 0.00 0.00 0.00 80 1011.1
20260906042250 25 18 0.0 0.0 0.00 0.00 0.00 80 1011.2
20260906041745 25 18 0.0 0.0 0.00 0.00 0.00 80 1011.4
20260906041240 25 18 0.0 0.0 0.00 0.00 0.00 79 1011.5
20260906040736 25 18 0.0 0.0 0.00 0.00 0.00 79 1011.3
20260906040231 25 18 0.0 0.0 0.00 0.00 0.00 78 1011.2
20260906035727 25 18 0.0 0.0 0.00 0.00 0.00 77 1011.2
20260906035223 25 18 0.0 0.0 0.00 0.00 0.00 77 1011.3
20260906034722 25 18 0.0 0.0 0.00 0.00 0.00 77 1011.3
20260906034217 25 18 0.0 0.0 0.00 0.00 0.00 77 1011.4
20260906033713 26 18 0.0 0.0 0.00 0.00 0.00 76 1011.3
20260906033212 26 18 0.0 0.0 0.00 0.00 0.00 76 1011.3
20260906032709 26 18 0.0 0.0 0.00 0.00 0.00 75 1011.4
20260906032209 26 18 0.0 0.0 0.00 0.00 0.00 75 1011.4
20260906031704 26 18 0.0 0.0 0.00 0.00 0.00 74 1011.4
20260906031200 26 18 0.0 0.0 0.00 0.00 0.00 74 1011.3
20260906030659 26 18 0.0 0.0 0.00 0.00 0.00 74 1011.2
20260906030155 26 18 0.0 0.0 0.00 0.00 0.00 73 1011.2
20260906025654 26 18 0.0 0.0 0.00 0.00 0.00 72 1011.0
20260906025154 26 18 0.0 0.0 0.00 0.00 0.00 73 1011.2
20260906024648 26 18 0.0 0.0 0.00 0.00 0.00 72 1011.3
20260906024147 26 18 0.0 0.0 0.00 0.00 0.00 72 1011.1
20260906023644 27 18 0.0 0.0 0.00 0.00 0.00 71 1011.2
20260906023143 27 18 0.0 0.0 0.00 0.00 0.00 70 1011.3
20260906022638 27 18 1.6 0.0 0.00 0.00 0.00 70 1011.0
20260906022134 27 18 0.0 0.0 0.00 0.00 0.00 70 1010.9
20260906021630 27 18 0.0 0.0 0.00 0.00 0.00 69 1010.9
20260906021128 27 18 0.0 0.0 0.00 0.00 0.00 68 1010.8
20260906020623 27 18 0.0 0.0 0.00 0.00 0.00 68 1010.9
20260906020118 27 18 0.0 0.0 0.00 0.00 0.00 67 1010.7
20260906015612 28 18 0.0 0.0 0.00 0.00 0.00 67 1010.6
20260906015111 28 18 0.0 0.0 0.00 0.00 0.00 66 1010.5
20260906014606 28 18 0.0 0.0 0.00 0.00 0.00 65 1010.3
20260906014102 28 18 0.0 0.0 0.00 0.00 0.00 64 1010.5
20260906013557 28 18 0.0 0.0 0.00 0.00 0.00 64 1010.5
20260906013052 28 18 0.0 0.0 0.00 0.00 0.00 63 1010.4
20260906012548 29 18 0.0 0.0 0.00 0.00 0.00 62 1010.3
20260906012047 29 18 0.0 0.0 0.00 0.00 0.00 60 1010.1
20260906011543 30 18 0.0 0.0 0.00 0.00 0.00 59 1009.9
20260906011043 30 18 0.0 0.0 0.00 0.00 0.00 58 1010.0
20260906010538 30 18 0.0 0.0 0.00 0.00 0.00 57 1009.9
20260906010034 30 18 0.0 0.0 0.00 0.00 0.00 56 1009.8
20260906005533 31 18 0.0 0.0 0.00 0.00 0.00 55 1009.9
20260906005033 31 18 0.0 0.0 0.00 0.00 0.00 55 1009.9
20260906004532 31 18 0.0 0.0 0.00 0.00 0.00 53 1010.0
20260906004027 31 18 0.0 0.0 0.00 0.00 0.00 52 1010.0
20260906003522 32 18 0.0 0.0 0.00 0.00 0.00 52 1009.8
20260906003019 32 18 0.0 0.0 0.00 0.00 0.00 51 1009.8
20260906002513 32 18 0.0 0.0 0.00 0.00 0.00 50 1009.9
20260906002008 33 18 0.0 0.0 0.00 0.00 0.00 48 1009.9
20260906001504 33 18 0.0 0.0 0.00 0.00 0.00 47 1009.9
20260906000958 33 18 0.0 0.0 0.00 0.00 0.00 45 1009.8
20260906000455 34 18 0.0 0.0 0.00 0.00 0.00 44 1010.0
20260905235954 34 18 0.0 0.0 0.00 0.00 0.00 44 1010.0
20260905235448 35 18 0.0 0.0 0.00 0.00 0.00 43 1009.9
20260905234943 35 18 1.6 1.6 0.00 0.00 0.00 42 1010.1
20260905234439 35 14 0.0 0.0 0.00 0.00 0.00 41 1009.8
20260905233938 35 19 3.2 3.2 0.00 0.00 0.00 41 1010.0
20260905233434 35 22 3.2 4.8 0.00 0.00 0.00 40 1010.1
20260905232933 36 19 0.0 0.0 0.00 0.00 0.00 40 1010.1
20260905232429 36 34 3.2 3.2 0.00 0.00 0.00 38 1010.1
20260905231924 36 34 3.2 3.2 0.00 0.00 0.00 37 1010.0
20260905231420 36 14 0.0 0.0 0.00 0.00 0.00 36 1010.1
20260905230916 36 29 1.6 1.6 0.00 0.00 0.00 36 1010.0
20260905230414 37 11 0.0 0.0 0.00 0.00 0.00 35 1009.8
20260905225913 37 14 1.6 1.6 0.00 0.00 0.00 35 1010.0
20260905225409 37 49 3.2 3.2 0.00 0.00 0.00 35 1010.0
20260905224903 37 6 1.6 1.6 0.00 0.00 0.00 34 1009.7
20260905224400 37 12 1.6 1.6 0.00 0.00 0.00 35 1010.1
20260905223859 37 14 3.2 3.2 0.00 0.00 0.00 34 1009.9
20260905223358 37 20 3.2 1.6 0.00 0.00 0.00 34 1010.0
20260905222857 37 12 1.6 1.6 0.00 0.00 0.00 34 1009.7
20260905222356 37 15 1.6 1.6 0.00 0.00 0.00 35 1009.9
20260905221853 37 12 1.6 1.6 0.00 0.00 0.00 35 1009.8
20260905221349 37 25 1.6 1.6 0.00 0.00 0.00 34 1009.8
20260905220845 37 16 3.2 3.2 0.00 0.00 0.00 35 1009.9
20260905220341 37 15 1.6 1.6 0.00 0.00 0.00 35 1010.2
20260905215840 37 11 3.2 4.8 0.00 0.00 0.00 34 1010.1
20260905215336 38 29 4.8 9.7 0.00 0.00 0.00 34 1010.2
20260905214832 38 46 6.4 9.7 0.00 0.00 0.00 34 1009.9
20260905214332 37 17 1.6 3.2 0.00 0.00 0.00 35 1010.3
20260905213827 36 5 3.2 3.2 0.00 0.00 0.00 36 1010.1
20260905213324 37 18 3.2 3.2 0.00 0.00 0.00 35 1010.1
20260905212819 38 9 3.2 3.2 0.00 0.00 0.00 33 1010.0
20260905212319 38 0 3.2 3.2 0.00 0.00 0.00 33 1010.0
20260905211818 38 4 1.6 1.6 0.00 0.00 0.00 32 1010.1
20260905211314 38 13 1.6 1.6 0.00 0.00 0.00 33 1010.1
20260905210810 38 14 3.2 3.2 0.00 0.00 0.00 33 1010.1
20260905210310 38 357 3.2 4.8 0.00 0.00 0.00 34 1009.8
20260905205809 37 13 1.6 3.2 0.00 0.00 0.00 35 1010.3
20260905205306 37 27 3.2 3.2 0.00 0.00 0.00 36 1010.2
20260905204803 36 346 1.6 3.2 0.00 0.00 0.00 38 1010.4
20260905204259 36 46 1.6 1.6 0.00 0.00 0.00 39 1010.5
20260905203758 36 28 3.2 4.8 0.00 0.00 0.00 40 1010.4
20260905203253 36 345 6.4 6.4 0.00 0.00 0.00 39 1010.5
20260905202749 36 359 3.2 6.4 0.00 0.00 0.00 38 1010.5
20260905202244 37 0 8.0 9.7 0.00 0.00 0.00 37 1010.6
20260905201739 37 24 3.2 3.2 0.00 0.00 0.00 35 1010.6
20260905201234 37 36 1.6 1.6 0.00 0.00 0.00 35 1010.6
20260905200729 38 19 3.2 3.2 0.00 0.00 0.00 32 1010.7
20260905200225 38 20 0.0 0.0 0.00 0.00 0.00 32 1011.0
20260905195724 38 6 3.2 1.6 0.00 0.00 0.00 32 1010.8
20260905195223 37 359 6.4 6.4 0.00 0.00 0.00 33 1010.7
20260905194720 38 13 1.6 1.6 0.00 0.00 0.00 33 1011.0
20260905194220 37 29 0.0 0.0 0.00 0.00 0.00 32 1011.0
20260905193719 38 89 4.8 4.8 0.00 0.00 0.00 31 1011.1
20260905193214 38 41 1.6 1.6 0.00 0.00 0.00 31 1011.0
20260905192710 39 347 1.6 1.6 0.00 0.00 0.00 29 1011.2
20260905192206 39 347 4.8 6.4 0.00 0.00 0.00 30 1011.2
20260905191705 39 352 6.4 6.4 0.00 0.00 0.00 30 1011.4
20260905191203 38 37 8.0 11.3 0.00 0.00 0.00 31 1011.3
20260905190702 38 334 1.6 1.6 0.00 0.00 0.00 31 1011.3
20260905190201 38 18 0.0 0.0 0.00 0.00 0.00 32 1011.5
20260905185700 37 6 0.0 1.6 0.00 0.00 0.00 33 1011.4
20260905185155 36 15 3.2 4.8 0.00 0.00 0.00 34 1011.9
20260905184654 36 12 0.0 0.0 0.00 0.00 0.00 35 1011.7
20260905184153 36 357 6.4 6.4 0.00 0.00 0.00 34 1011.9
20260905183648 36 342 0.0 0.0 0.00 0.00 0.00 35 1011.9
20260905183143 37 7 3.2 3.2 0.00 0.00 0.00 34 1012.1
20260905182642 37 16 6.4 9.7 0.00 0.00 0.00 33 1012.1
20260905182142 38 24 3.2 4.8 0.00 0.00 0.00 31 1012.0
20260905181638 37 16 6.4 6.4 0.00 0.00 0.00 32 1012.2
20260905181137 37 329 3.2 3.2 0.00 0.00 0.00 33 1012.1
20260905180632 37 336 1.6 1.6 0.00 0.00 0.00 32 1012.2
20260905180127 36 354 3.2 4.8 0.00 0.00 0.00 34 1012.4
20260905175626 37 354 6.4 6.4 0.00 0.00 0.00 33 1012.3
20260905175121 37 315 6.4 4.8 0.00 0.00 0.00 32 1012.5
20260905174617 37 359 1.6 1.6 0.00 0.00 0.00 35 1012.4
20260905174112 37 348 1.6 1.6 0.00 0.00 0.00 33 1012.4
20260905173609 37 352 6.4 6.4 0.00 0.00 0.00 33 1012.5
20260905173104 37 341 6.4 9.7 0.00 0.00 0.00 33 1012.7
20260905172603 37 358 9.7 11.3 0.00 0.00 0.00 32 1012.6
20260905172058 37 3 3.2 3.2 0.00 0.00 0.00 34 1012.5
20260905171554 37 7 4.8 6.4 0.00 0.00 0.00 34 1012.7
20260905171050 38 353 1.6 1.6 0.00 0.00 0.00 33 1012.7
20260905170546 37 123 11.3 12.9 0.00 0.00 0.00 33 1012.6
20260905170041 37 349 1.6 1.6 0.00 0.00 0.00 35 1012.9
20260905165536 37 319 3.2 3.2 0.00 0.00 0.00 35 1012.9
20260905165032 37 1 4.8 4.8 0.00 0.00 0.00 34 1013.2
20260905164532 37 347 6.4 9.7 0.00 0.00 0.00 35 1013.1
20260905164027 37 17 4.8 4.8 0.00 0.00 0.00 35 1013.0
20260905163522 36 352 6.4 6.4 0.00 0.00 0.00 35 1012.9
20260905163018 36 9 11.3 12.9 0.00 0.00 0.00 35 1013.2
20260905162514 36 350 6.4 9.7 0.00 0.00 0.00 35 1013.2
20260905162009 37 350 6.4 6.4 0.00 0.00 0.00 35 1013.0
20260905161508 37 342 1.6 1.6 0.00 0.00 0.00 36 1013.0
20260905161006 36 29 1.6 1.6 0.00 0.00 0.00 36 1013.2
20260905160505 36 345 3.2 3.2 0.00 0.00 0.00 35 1013.1
20260905160006 36 315 6.4 6.4 0.00 0.00 0.00 35 1013.3
20260905155506 35 1 3.2 3.2 0.00 0.00 0.00 37 1013.2
20260905155004 36 352 3.2 3.2 0.00 0.00 0.00 37 1013.5
20260905154459 36 350 4.8 4.8 0.00 0.00 0.00 38 1013.4
20260905153955 35 0 8.0 9.7 0.00 0.00 0.00 39 1013.5
20260905153451 35 328 8.0 9.7 0.00 0.00 0.00 40 1013.4
20260905152951 35 5 4.8 6.4 0.00 0.00 0.00 40 1013.3
20260905152450 35 4 9.7 11.3 0.00 0.00 0.00 41 1013.3
20260905151946 35 359 6.4 9.7 0.00 0.00 0.00 42 1013.5
20260905151441 34 338 4.8 6.4 0.00 0.00 0.00 43 1013.5
20260905150936 34 327 6.4 9.7 0.00 0.00 0.00 44 1013.2
20260905150436 34 338 12.9 14.5 0.00 0.00 0.00 43 1013.3
20260905145933 34 28 3.2 1.6 0.00 0.00 0.00 45 1013.3
20260905145433 33 356 1.6 3.2 0.00 0.00 0.00 45 1013.4
20260905144932 34 349 3.2 3.2 0.00 0.00 0.00 46 1013.3
20260905144428 33 357 3.2 4.8 0.00 0.00 0.00 47 1013.5
20260905143927 33 358 4.8 6.4 0.00 0.00 0.00 48 1013.4
20260905143426 33 322 4.8 6.4 0.00 0.00 0.00 47 1013.2
20260905142927 33 357 1.6 1.6 0.00 0.00 0.00 49 1013.3
20260905142426 32 346 6.4 6.4 0.00 0.00 0.00 49 1013.4
20260905141921 32 344 1.6 1.6 0.00 0.00 0.00 51 1013.5
20260905141416 32 359 1.6 1.6 0.00 0.00 0.00 52 1013.4